Weather Roundup
Issued by NWS Springfield, MO

Home | Current Version | Previous Version | Text Only | Print | Product List | Glossary On
Versions: 1 2 3 4 5 6 7 8 9 10 11 12 13 14 15 16 17 18 19 20 21 22 23 24 25 26 27 28 29 30 31 32 33 34 35 36 37 38 39 40 41 42 43 44 45 46 47 48 49 50
000
NZUS99 KSGF 140007
HRRSGF

HOURLY WEATHER
NATIONAL WEATHER SERVICE SPRINGFIELD MO
600 PM CST SAT FEB 13 2016

......SGF CWA......

CITY           SKY/WX    TMP DP  RH WIND       PRES   REMARKS
SPRINGFIELD    CLOUDY    35  -2  20 SE12      30.27F WCI  27
6HR MIN TEMP:  31; 6HR MAX TEMP:  38;

JOPLIN         CLOUDY    39   8  27 E15       30.23F WCI  31
6HR MIN TEMP:  35; 6HR MAX TEMP:  43;

WEST PLAINS    PTCLDY    28  -3  26 E10       30.38F WCI  19
6HR MIN TEMP:  28; 6HR MAX TEMP:  33;

ROLLA          CLOUDY    21   2  43 E9        30.38F WCI  11
6HR MIN TEMP:  18; 6HR MAX TEMP:  21;

OSAGE BEACH    CLOUDY    23   0  36 E9        30.38F WCI  13
BRANSON        MOCLDY    36   1  23 E12       30.30F WCI  27

......SURROUNDING SGF CWA......

CITY           SKY/WX    TMP DP  RH WIND       PRES   REMARKS
CHANUTE        CLOUDY    34   6  31 E13G20    30.21F WCI  25
PARSONS        CLOUDY    41   9  26 VRB3      30.20F
COFFEYVILLE    CLOUDY    42  12  29 E8        30.19F
EMPORIA        CLOUDY    28   7  41 E13       30.22R WCI  17
GROVE OK       CLOUDY    46  18  31 E3        30.22F HAZE
ROGERS AR      CLOUDY    42  12  29 E10       30.22F
SILOAM SPRINGS CLEAR     45  14  29 S12       30.22F
HARRISON AR    CLOUDY    37   2  22 SE14      30.29F WCI  28
NEAR YELLVILLE CLOUDY    37   1  22 E12       30.33F WCI  30

......KANSAS AND MISSOURI......

CITY           SKY/WX    TMP DP  RH WIND       PRES   REMARKS
KANSAS CTY INT CLOUDY    20   3  48 E16       30.31F WCI   6
DOWNTOWN KC    CLOUDY    22   4  46 E13       30.32F WCI  10
COLUMBIA       CLOUDY    20   2  45 E10       30.42F WCI   9
SEDALIA        CLOUDY    21   2  43 E15       30.38F WCI   8
ST JOSEPH      CLOUDY    20   1  43 E14       30.34F WCI   7
ST LOUIS       CLOUDY    23   0  36 E9        30.51F WCI  13
SPIRIT OF STL  CLOUDY    22   1  40 E3        30.50F
KIRKSVILLE     CLOUDY    18   3  52 E12       30.42F WCI   5
WICHITA        CLOUDY    41  11  29 SE14      30.14F
TOPEKA         CLOUDY    24   1  36 E13       30.28F WCI  12
OLATHE         CLOUDY    21   1  41 E14       30.28F WCI   8

......TENNESSEE......

CITY           SKY/WX    TMP DP  RH WIND       PRES   REMARKS
MEMPHIS        CLOUDY    35   6  29 NE12      30.45F WCI  27
NASHVILLE      MOCLDY    27   1  32 NE9       30.49F WCI  18

......ARKANSAS.......

CITY           SKY/WX    TMP DP  RH WIND       PRES   REMARKS
FAYETTEVILLE   CLEAR     42  15  33 S8        30.24F
FT SMITH       CLEAR     44  13  28 E15       30.27F
LITTLE ROCK    PTCLDY    37  11  34 E13       30.41F WCI  29

......OKLAHOMA.......

CITY           SKY/WX    TMP DP  RH WIND       PRES   REMARKS
TULSA          PTCLDY    49  27  42 SE10      30.15F
MCALESTER      PTCLDY    54  30  40 S12       30.18F
OKLAHOMA CITY  PTCLDY    54  34  46 SE17      30.07F

......IOWA............

CITY           SKY/WX    TMP DP  RH WIND       PRES   REMARKS
DES MOINES     CLOUDY    15  -1  49 SE12      30.40F WCI   2
QUAD CITIES    CLOUDY    18  -5  36 S5        30.49F WCI  11

......ILLINOIS........

CITY           SKY/WX    TMP DP  RH WIND       PRES   REMARKS
QUINCY         CLOUDY    18   2  49 SE8       30.46F WCI   8
CHICAGO        PTCLDY    13  -5  44 NW5       30.49F WCI   5



USA.gov is the U.S. government's official web portal to all federal, state and local government web resources and services.